[[{"header":{"parameterUnit":"m.s-1","parameterCategory":1,"la1":30.2992,"la2":30.254,"lo1":-89.0895,"lo2":-89.0443,"dy":0.0025,"dx":0.0025,"nx":19,"ny":19,"refTime":"2026-05-09T09:00:00:Z","depth":0,"parameterNumber":2,"parameterNumberName":"U-component_of_WINDS"},"data":[0,0,0,0.8567,0.8567,0.8572,0.8572,0.8594,0.8595,0,0,0,0,0,0,0,0,0,0,0,0.8575,0.8576,0.8567,0.8567,0.8572,0.8572,0.8594,0.8595,0,0,0,0,0,0,0,0,0,0,0,0.8575,0.8575,0.8576,0.8567,0.8572,0.8572,0.8594,0.8585,0,0,0,0,0,0,0,0,0,0,0.8577,0.8594,0.8575,0.8576,0.8567,0.8572,0.8572,0.8584,0.8585,0.8599,0,0.8613,0,0.8604,0.8597,0.8597,0,0,0,0.856,0.8593,0.8586,0.8576,0.8568,0.8572,0.8568,0.8585,0.8586,0.86,0.8613,0.8614,0.8605,0.8597,0.8597,0.8697,0.8698,0,0,0.856,0.8581,0.8585,0.8587,0.8588,0.8568,0.8568,0.8585,0.8601,0.8613,0.8614,0.8605,0.8598,0.8598,0.8697,0.8698,0,0,0,0.8564,0.8581,0.8573,0.8587,0.8586,0.8568,0.8569,0.86,0.8595,0.8614,0.8605,0.8598,0.8598,0.8696,0.8697,0.8758,0,0,0,0.8563,0.8584,0.8573,0.8587,0.8586,0.8593,0.8583,0.8594,0.8595,0.8605,0.8598,0.8599,0.8695,0.8696,0.8754,0.8783,0,0,0,0.8571,0.8584,0.8588,0.8588,0.8591,0.8593,0.8589,0.8594,0.8591,0.8597,0.8599,0.8694,0.8696,0.8751,0.8778,0.8816,0,0,0,0.8586,0.8643,0.859,0.8649,0.8591,0.863,0.8588,0.8617,0.8629,0.8598,0.8695,0.8697,0.875,0.8775,0.8813,0.8852,0.887,0,0,0.867,0.8654,0.8687,0.8639,0.8694,0.8627,0.869,0.8682,0.8663,0.8687,0.8689,0.8755,0.8777,0.8815,0.8965,0.8979,0,0,0,0.872,0.8745,0.8754,0.8767,0.8762,0.8759,0.8739,0.8735,0.8755,0.868,0.8778,0.8791,0.8812,0.883,0.8842,0.8859,0.8706,0.8706,0.8706,0.887,0.8842,0.8895,0.8867,0.888,0.8858,0.8866,0.8857,0.8826,0.8849,0.8857,0.8951,0.8973,0.8982,0.9,0.8875,0.8875,0.8875,0.8875,0.899,0.902,0.8975,0.901,0.898,0.9009,0.8989,0.8966,0.8989,0.8943,0.8961,0.8915,0.8999,0.9013,0.888,0.8879,0.8878,0.8878,0.8878,0.9086,0.9095,0.9089,0.9104,0.9119,0.9088,0.9112,0.9083,0.9056,0.9073,0.9078,0.9077,0.9073,0.9077,0.9078,0.9078,0.9078,0.9079,0.9079,0.9187,0.9179,0.9202,0.92,0.9204,0.9205,0.9182,0.9185,0.9181,0.9158,0.9158,0.9125,0.9012,0.8985,0.9084,0.9083,0.9082,0.9082,0.9081,0.9321,0.9285,0.9322,0.9326,0.932,0.9336,0.9298,0.9307,0.9305,0.9317,0.9279,0.9201,0.9183,0.9172,0.915,0.9285,0.9285,0.9285,0.9285,0.9402,0.9389,0.9419,0.9427,0.9431,0.9401,0.9442,0.9424,0.94,0.9397,0.9373,0.934,0.9331,0.9318,0.9305,0.9283,0.9449,0.9449,0.945,0.9482,0.9468,0.951,0.9485,0.9478,0.9472,0.951,0.9521,0.9486,0.9456,0.9394,0.9387,0.9334,0.9318,0.9288,0.9267,0.9227,0,0]},{"header":{"parameterUnit":"m.s-1","parameterCategory":1,"la1":30.2992,"la2":30.254,"lo1":-89.0895,"lo2":-89.0443,"dy":0.0025,"dx":0.0025,"nx":19,"ny":19,"refTime":"2026-05-09T09:00:00:Z","depth":0,"parameterNumber":3,"parameterNumberName":"V-component_of_WINDS"},"data":[0,0,0,4.1645,4.1648,4.1771,4.1772,4.1931,4.1932,0,0,0,0,0,0,0,0,0,0,0,4.1613,4.1614,4.1645,4.1648,4.1771,4.1772,4.193,4.1932,0,0,0,0,0,0,0,0,0,0,0,4.1613,4.1614,4.1616,4.1648,4.1771,4.1772,4.193,4.1836,0,0,0,0,0,0,0,0,0,0,4.1715,4.1692,4.1614,4.1616,4.1649,4.1771,4.1772,4.1831,4.1841,4.1877,0,4.1913,0,4.1925,4.1943,4.1944,0,0,0,4.1643,4.1683,4.1712,4.1616,4.165,4.1771,4.1714,4.1837,4.1849,4.1891,4.1915,4.1921,4.1928,4.1944,4.1945,4.2172,4.2173,0,0,4.1636,4.1637,4.1704,4.172,4.1706,4.171,4.1718,4.1844,4.1869,4.1916,4.1924,4.1931,4.1945,4.1947,4.2171,4.2172,0,0,0,4.162,4.1632,4.1659,4.1714,4.1736,4.1714,4.1723,4.1863,4.1872,4.1926,4.1932,4.1946,4.1948,4.217,4.2172,4.2237,0,0,0,4.1616,4.1623,4.1656,4.1657,4.1734,4.1802,4.174,4.1863,4.1878,4.1932,4.1946,4.195,4.2168,4.2171,4.2232,4.2268,0,0,0,4.1603,4.1621,4.1641,4.1657,4.1711,4.18,4.1816,4.1866,4.1882,4.1944,4.1951,4.2167,4.217,4.2228,4.2261,4.2328,0,0,0,4.1589,4.1696,4.1642,4.1764,4.171,4.1841,4.1815,4.1912,4.1973,4.1947,4.2168,4.2171,4.2227,4.2256,4.2323,4.2385,4.2411,0,0,4.1724,4.1713,4.1784,4.1739,4.1881,4.1822,4.1971,4.2025,4.2028,4.2123,4.2128,4.2234,4.226,4.2327,4.2556,4.2577,0,0,0,4.1827,4.1878,4.1915,4.1976,4.2021,4.2062,4.2093,4.2112,4.2194,4.2079,4.2276,4.2292,4.2331,4.236,4.2378,4.2411,4.2185,4.2185,4.2184,4.2018,4.202,4.2137,4.2153,4.2211,4.2242,4.2288,4.2319,4.2301,4.2347,4.2376,4.2515,4.255,4.2563,4.2597,4.2408,4.2408,4.2408,4.2409,4.2216,4.2289,4.2264,4.237,4.2368,4.2455,4.2488,4.2472,4.255,4.2494,4.2528,4.2467,4.2586,4.2616,4.2414,4.2413,4.2412,4.2412,4.2411,4.2343,4.2378,4.2401,4.2488,4.2554,4.2564,4.2641,4.2636,4.2631,4.2666,4.2694,4.2693,4.2691,4.268,4.268,4.2681,4.2681,4.2681,4.2682,4.2464,4.2489,4.2557,4.2614,4.2652,4.27,4.2731,4.2767,4.2804,4.2794,4.2794,4.2771,4.2598,4.2555,4.2689,4.2688,4.2687,4.2686,4.2686,4.2665,4.2619,4.2724,4.2762,4.2828,4.2893,4.2886,4.2958,4.2986,4.3024,4.2993,4.2866,4.2852,4.2838,4.2802,4.2993,4.2993,4.2993,4.2993,4.2772,4.2765,4.2872,4.2932,4.2991,4.2995,4.3109,4.3133,4.315,4.3167,4.3138,4.309,4.3076,4.307,4.3051,4.3018,4.3259,4.3259,4.326,4.2896,4.2894,4.2996,4.3015,4.3065,4.3108,4.3215,4.3282,4.3291,4.327,4.318,4.3168,4.309,4.3065,4.3043,4.3013,4.2952,0,0]}]]